Location: ??????
(42.0089°N, 44.3281°E)
Time: 12:57:06
(UTC+00:00)

Meteor 2-11 Rocket - Pass Details

Date: 24 October 2021
Orbit: 938 x 958 km, 82.5° (Epoch: 07 December)

Event Time Altitude Azimuth Distance (km) Brightness Sun altitude
Rises 16:05:18 0° 182° (S) 3,622 7.5 -22.5°
Reaches altitude 10° 16:07:47 10° 181° (S) 2,680 6.8 -23.0°
Maximum altitude 16:13:55 79° 96° (E) 979 4.3 -24.1°
Drops below altitude 10° 16:20:05 10° 11° (N) 2,694 6.8 -25.3°
Sets 16:22:35 0° 10° (N) 3,641 7.5 -25.7°
